Location: Vancouver
(49.2500°N, 123.1330°W)
Time: 13:38:54
(UTC-08:00)

deb Explorer IX - Visible Passes

Search period start: 18 December 2014 00:00
Search period end: 28 December 2014 00:00
Orbit: 558 x 1187 km, 38.8° (Epoch: 15 December)

Date Brightness Start Highest point End Pass type
(mag) Time Alt. Az. Time Alt. Az. Time Alt. Az.
18 Dec ? 05:38:04 10° S 05:41:22 14° SSE 05:44:25 10° ESE visible
18 Dec ? 07:23:45 10° SW 07:28:36 25° S 07:32:51 10° ESE visible
19 Dec ? 05:29:50 10° SSW 05:33:53 17° SSE 05:37:36 10° ESE visible
19 Dec ? 07:16:05 10° SW 07:21:11 27° S 07:25:38 10° ESE visible
20 Dec ? 05:21:43 10° SSW 05:26:21 20° SSE 05:30:33 10° ESE visible
20 Dec ? 07:08:22 10° SW 07:13:42 29° S 07:18:20 10° ESE visible
21 Dec ? 05:14:38 13° SSW 05:18:45 22° SSE 05:23:21 10° ESE visible
21 Dec ? 07:00:38 10° WSW 07:06:09 30° S 07:10:55 10° ESE visible
22 Dec ? 03:25:36 11° SE 03:25:36 11° SE 03:26:06 10° SE visible
22 Dec ? 05:07:59 18° SSW 05:11:05 25° SSE 05:16:00 10° ESE visible
22 Dec ? 06:52:51 10° WSW 06:58:31 31° S 07:03:26 10° ESE visible
23 Dec ? 03:18:47 11° SE 03:18:47 11° SE 03:19:28 10° ESE visible
23 Dec ? 05:01:08 23° SSW 05:03:21 27° SSE 05:08:33 10° ESE visible
23 Dec ? 06:45:01 10° WSW 06:50:49 31° S 06:55:51 10° ESE visible
24 Dec ? 03:11:47 12° ESE 03:11:47 12° ESE 03:12:21 10° ESE visible
24 Dec ? 04:54:08 27° S 04:55:33 30° SSE 05:00:59 10° ESE visible
24 Dec ? 06:37:08 10° WSW 06:43:02 32° S 06:48:10 10° SE visible
25 Dec ? 03:04:38 11° ESE 03:04:38 11° ESE 03:04:59 10° ESE visible
25 Dec ? 04:46:59 31° S 04:47:41 32° S 04:53:19 10° ESE visible
25 Dec ? 06:29:19 10° WSW 06:35:11 31° S 06:40:24 10° SE visible
26 Dec ? 02:57:22 10° ESE 02:57:22 10° ESE 02:57:27 10° ESE visible
26 Dec ? 04:39:42 33° S 04:39:45 33° S 04:45:34 10° ESE visible
26 Dec ? 06:22:02 13° WSW 06:27:16 31° SSW 06:32:33 10° SE visible
27 Dec ? 04:32:20 34° SSE 04:32:20 34° SSE 04:37:43 10° ESE visible
27 Dec ? 06:14:39 15° WSW 06:19:15 30° SSW 06:24:35 10° SE visible
